IW6PHZ-13 Weather Reports


time (UTC)temp
F
wind
direction
speed
knots
gust
knots
rain 1hr
in
rain 24hr
in
rain mn
in
humidity
%
barometer
mb
20260507123052 63 32 1.7 7.0 0.00 0.00 0.00 80 1013.7
20260507122544 64 31 1.7 7.0 0.00 0.00 0.00 78 1013.6
20260507122042 64 28 1.7 7.0 0.00 0.00 0.00 77 1013.6
20260507121552 64 21 1.7 7.0 0.00 0.00 0.00 76 1013.5
20260507121052 65 86 0.9 6.1 0.00 0.00 0.00 73 1013.5
20260507120542 64 13 1.7 7.8 0.00 0.00 0.00 75 1013.7
20260507120057 65 82 0.9 7.8 0.00 0.00 0.00 74 1013.6
20260507115541 64 20 2.6 7.8 0.00 0.00 0.00 73 1013.6
20260507115044 64 11 1.7 5.2 0.00 0.00 0.00 76 1013.5
20260507114556 64 5 0.9 6.1 0.00 0.00 0.00 78 1013.5
20260507114044 64 303 1.7 6.1 0.00 0.00 0.00 78 1013.6
20260507113542 64 55 1.7 8.7 0.00 0.00 0.00 76 1013.5
20260507113050 64 9 2.6 8.7 0.00 0.00 0.00 76 1013.4
20260507112542 66 340 1.7 5.2 0.00 0.00 0.00 75 1013.5
20260507112045 65 12 0.9 5.2 0.00 0.00 0.00 76 1013.4
20260507111553 64 45 1.7 5.2 0.00 0.00 0.00 77 1013.4
20260507111045 65 26 0.9 5.2 0.00 0.00 0.00 75 1013.4
20260507110542 65 24 1.7 6.1 0.00 0.00 0.00 76 1013.4
20260507110054 64 0 1.7 7.0 0.00 0.00 0.00 78 1013.4
20260507105542 65 17 1.7 7.0 0.00 0.00 0.00 77 1013.5
20260507105044 65 350 1.7 7.0 0.00 0.00 0.00 79 1013.6
20260507104556 64 9 0.9 7.0 0.00 0.00 0.00 81 1013.6
20260507104045 64 9 2.6 7.0 0.00 0.00 0.00 80 1013.7
20260507103543 64 9 0.9 8.7 0.00 0.00 0.00 80 1013.7
20260507103050 64 28 1.7 8.7 0.00 0.00 0.00 81 1013.7
20260507102542 64 317 1.7 7.0 0.00 0.00 0.00 82 1013.6
20260507102042 64 5 1.7 7.8 0.00 0.00 0.00 82 1013.6
20260507101551 64 27 1.7 7.8 0.00 0.00 0.00 83 1013.7
20260507101047 64 30 0.9 7.8 0.00 0.00 0.00 84 1013.7
20260507100541 63 18 1.7 7.8 0.00 0.00 0.00 84 1013.6
20260507100052 64 47 1.7 7.8 0.00 0.00 0.00 84 1013.5
20260507095545 65 311 1.7 7.0 0.00 0.00 0.00 84 1013.5
20260507095044 64 36 1.7 7.0 0.00 0.00 0.00 84 1013.6
20260507094549 64 0 1.7 7.0 0.00 0.00 0.00 84 1013.4
20260507094045 64 337 0.9 7.0 0.00 0.00 0.00 82 1013.5
20260507093542 64 0 1.7 7.0 0.00 0.00 0.00 82 1013.7
20260507093052 64 334 0.9 6.1 0.00 0.00 0.00 82 1013.6
20260507092542 64 315 1.7 6.1 0.00 0.00 0.00 83 1013.6
20260507092042 64 355 1.7 6.1 0.00 0.00 0.00 83 1013.7
20260507091557 64 341 0.9 6.1 0.00 0.00 0.00 84 1013.7
20260507091042 64 340 1.7 5.2 0.00 0.00 0.00 83 1013.8
20260507090541 64 0 0.9 6.1 0.00 0.00 0.00 84 1013.8
20260507090050 63 344 1.7 6.1 0.00 0.00 0.00 84 1013.7
20260507085542 63 346 0.9 5.2 0.00 0.00 0.00 84 1013.8
20260507085047 63 0 0.9 5.2 0.00 0.00 0.00 85 1013.7
20260507084547 62 346 1.7 5.2 0.00 0.00 0.00 85 1013.8
20260507084044 63 329 0.9 5.2 0.00 0.00 0.00 85 1013.8
20260507083543 63 20 1.7 7.0 0.00 0.00 0.00 84 1013.6
20260507083052 63 351 2.6 7.8 0.00 0.00 0.00 84 1013.7
20260507082548 62 355 2.6 7.8 0.00 0.00 0.00 84 1013.6
20260507082041 63 346 0.9 7.8 0.00 0.00 0.00 84 1013.7
20260507081552 63 336 1.7 7.0 0.00 0.00 0.00 84 1013.5
20260507081044 63 333 1.7 7.0 0.00 0.00 0.00 83 1013.5
20260507080543 63 5 1.7 7.0 0.00 0.00 0.00 84 1013.5
20260507080056 62 0 1.7 7.0 0.00 0.00 0.00 85 1013.4
20260507075542 62 343 1.7 6.1 0.00 0.00 0.00 85 1013.3
20260507075048 63 333 0.9 7.0 0.00 0.00 0.00 85 1013.3
20260507074550 63 336 0.9 7.0 0.00 0.00 0.00 85 1013.3
20260507074044 63 348 0.9 5.2 0.00 0.00 0.00 85 1013.2
20260507073545 63 342 0.9 7.8 0.00 0.00 0.00 85 1013.2
20260507073055 62 355 0.9 7.8 0.00 0.00 0.00 84 1013.2
20260507072542 62 329 2.6 7.8 0.00 0.00 0.00 84 1013.2
20260507072045 62 0 2.6 7.8 0.00 0.00 0.00 84 1013.2
20260507071552 63 342 0.9 5.2 0.00 0.00 0.00 85 1013.3
20260507071044 63 319 0.9 5.2 0.00 0.00 0.00 85 1013.4
20260507070545 63 23 1.7 7.8 0.00 0.00 0.00 85 1013.3
20260507070058 62 309 2.6 7.8 0.00 0.00 0.00 85 1013.3
20260507065547 62 299 2.6 6.1 0.00 0.00 0.00 85 1013.3
20260507065041 62 298 0.9 5.2 0.00 0.00 0.00 86 1013.2
20260507064552 62 337 1.7 5.2 0.00 0.00 0.00 86 1013.3
20260507064042 62 329 0.9 3.5 0.00 0.00 0.00 86 1013.2
20260507063545 62 331 0.9 4.3 0.00 0.00 0.00 86 1013.2
20260507063056 62 295 0.9 4.3 0.00 0.00 0.00 86 1013.1
20260507062542 62 315 0.9 4.3 0.00 0.00 0.00 87 1013.0
20260507062044 61 305 1.7 4.3 0.00 0.00 0.00 88 1013.0
20260507061555 61 290 2.6 4.3 0.00 0.00 0.00 89 1013.1
20260507061043 61 302 1.7 4.3 0.00 0.00 0.00 89 1013.2
20260507060541 60 302 1.7 5.2 0.00 0.00 0.00 89 1013.2
20260507060058 60 327 1.7 7.0 0.00 0.00 0.00 89 1013.1
20260507055542 60 332 3.5 7.8 0.00 0.00 0.00 89 1013.1
20260507055044 60 316 3.5 7.8 0.00 0.00 0.00 90 1013.1
20260507054552 60 313 3.5 7.0 0.00 0.00 0.00 90 1013.1
20260507054046 60 318 3.5 7.0 0.00 0.00 0.00 90 1013.0
20260507053546 60 309 3.5 9.6 0.00 0.00 0.00 90 1013.0
20260507053101 60 317 2.6 9.6 0.00 0.00 0.00 90 1012.9
20260507052545 60 327 4.3 9.6 0.00 0.00 0.00 90 1012.8
20260507052046 60 312 3.5 8.7 0.00 0.00 0.00 90 1012.8
20260507051549 60 306 3.5 9.6 0.00 0.00 0.00 90 1012.7
20260507051045 60 309 4.3 9.6 0.00 0.00 0.00 91 1012.6
20260507050547 60 306 5.2 9.6 0.00 0.00 0.00 91 1012.5
20260507050057 60 311 4.3 9.6 0.00 0.00 0.00 91 1012.4
20260507045549 60 315 5.2 11.3 0.00 0.00 0.00 91 1012.4
20260507045046 60 306 7.0 11.3 0.00 0.00 0.00 92 1012.3
20260507044558 60 308 6.1 11.3 0.00 0.00 0.00 92 1012.3
20260507044047 60 305 5.2 11.3 0.00 0.00 0.00 92 1012.1
20260507043545 60 306 6.1 11.3 0.00 0.00 0.00 92 1012.1
20260507043058 60 313 6.1 10.4 0.00 0.00 0.00 92 1011.9
20260507042546 60 292 7.0 10.4 0.00 0.00 0.00 92 1011.9
20260507042047 60 292 6.1 10.4 0.00 0.00 0.00 92 1011.8
20260507041600 60 313 5.2 8.7 0.00 0.00 0.00 91 1011.9
20260507041045 60 337 4.3 9.6 0.00 0.00 0.00 91 1011.7
20260507040549 60 324 3.5 9.6 0.00 0.00 0.00 91 1011.8
20260507040058 60 317 4.3 8.7 0.00 0.00 0.00 90 1011.6
20260507035545 60 313 4.3 8.7 0.00 0.00 0.00 90 1011.6
20260507035045 60 355 4.3 8.7 0.00 0.00 0.00 90 1011.6
20260507034608 60 315 3.5 8.7 0.00 0.00 0.00 90 1011.7
20260507034047 60 319 5.2 8.7 0.00 0.00 0.00 89 1011.6
20260507033546 60 322 5.2 8.7 0.00 0.00 0.00 89 1011.6
20260507033056 60 315 3.5 9.6 0.00 0.00 0.00 89 1011.7
20260507032545 60 311 5.2 10.4 0.00 0.00 0.00 88 1011.6
20260507032046 60 340 5.2 10.4 0.00 0.00 0.00 88 1011.5
20260507031558 60 313 5.2 13.0 0.00 0.00 0.00 87 1011.4
20260507031045 60 340 5.2 13.0 0.00 0.00 0.00 87 1011.3
20260507030548 60 296 4.3 9.6 0.00 0.00 0.00 86 1011.3
20260507030057 60 318 4.3 9.6 0.00 0.00 0.00 85 1011.2
20260507025547 60 341 4.3 9.6 0.00 0.00 0.00 85 1011.3
20260507025047 60 323 5.2 9.6 0.00 0.00 0.00 84 1011.1
20260507024557 60 5 4.3 9.6 0.00 0.00 0.00 83 1011.1
20260507024047 60 348 3.5 7.8 0.00 0.00 0.00 83 1011.0
20260507023546 61 339 4.3 8.7 0.00 0.00 0.00 82 1011.1
20260507023053 61 325 3.5 8.7 0.00 0.00 0.00 82 1011.0
20260507022546 61 328 4.3 8.7 0.00 0.00 0.00 81 1011.0
20260507022045 61 336 3.5 11.3 0.00 0.00 0.00 81 1011.0
20260507021557 61 311 2.6 11.3 0.00 0.00 0.00 80 1010.9
20260507021045 61 308 5.2 11.3 0.00 0.00 0.00 79 1010.9
20260507020546 62 332 5.2 9.6 0.00 0.00 0.00 79 1010.9
20260507020104 62 22 5.2 9.6 0.00 0.00 0.00 79 1010.8
20260507015545 62 330 4.3 9.6 0.00 0.00 0.00 78 1010.7
20260507015046 62 348 5.2 10.4 0.00 0.00 0.00 79 1010.6
20260507014556 62 345 4.3 10.4 0.00 0.00 0.00 79 1010.7
20260507014047 62 331 5.2 10.4 0.00 0.00 0.00 80 1010.7
20260507013545 61 324 6.1 10.4 0.00 0.00 0.00 82 1010.7
20260507013101 61 317 6.1 10.4 0.00 0.00 0.00 83 1010.7
20260507012545 61 317 5.2 10.4 0.00 0.00 0.00 84 1010.7
20260507012046 61 295 6.1 10.4 0.00 0.00 0.00 86 1010.7
20260507011555 60 301 5.2 8.7 0.00 0.00 0.00 88 1010.7
20260507011049 60 275 4.3 7.8 0.00 0.00 0.00 90 1010.7
20260507010547 60 312 3.5 7.8 0.00 0.00 0.00 90 1010.6
20260507010050 60 306 4.3 8.7 0.00 0.00 0.00 90 1010.5
20260507005546 60 311 5.2 8.7 0.00 0.00 0.00 89 1010.4
20260507005045 60 316 6.1 11.3 0.00 0.00 0.00 89 1010.5
20260507004559 60 315 5.2 11.3 0.00 0.00 0.00 89 1010.5
20260507004045 60 317 6.1 11.3 0.00 0.00 0.00 88 1010.5
20260507003550 60 321 6.1 11.3 0.00 0.00 0.00 87 1010.6
20260507003053 61 326 6.1 11.3 0.00 0.00 0.00 86 1010.6
20260507002545 61 343 6.1 9.6 0.00 0.00 0.00 85 1010.6
20260507002045 61 324 5.2 8.7 0.00 0.00 0.00 85 1010.6
20260507001550 61 319 4.3 7.8 0.00 0.00 0.00 85 1010.7
20260507001046 61 315 4.3 7.8 0.00 0.00 0.00 84 1010.8
20260507000549 61 333 4.3 7.8 0.00 0.00 0.00 84 1010.8
20260507000055 61 323 4.3 7.0 0.00 0.00 0.00 83 1010.8
20260506235546 61 335 3.5 5.2 0.00 0.00 0.00 83 1010.8
20260506235048 61 342 2.6 5.2 0.00 0.00 0.00 82 1010.9
20260506234556 61 341 2.6 5.2 0.00 0.00 0.00 82 1011.0
20260506234048 62 327 2.6 4.3 0.00 0.00 0.00 81 1011.1
20260506233546 62 343 0.9 4.3 0.00 0.00 0.00 80 1011.0
20260506233054 62 336 1.7 7.0 0.00 0.00 0.00 80 1011.1
20260506232546 62 355 2.6 7.0 0.00 0.00 0.00 79 1011.0
20260506232044 62 309 3.5 7.0 0.00 0.00 0.00 79 1011.0
20260506231550 62 314 2.6 7.0 0.00 0.00 0.00 79 1011.1
20260506231044 63 323 3.5 7.0 0.00 0.00 0.00 79 1011.0
20260506230543 62 313 1.7 5.2 0.00 0.00 0.00 80 1011.0
20260506230100 62 337 0.9 5.2 0.00 0.00 0.00 80 1011.0
20260506225545 62 328 2.6 5.2 0.00 0.00 0.00 81 1011.0
20260506225046 62 336 1.7 5.2 0.00 0.00 0.00 81 1011.0
20260506224600 62 315 2.6 7.8 0.00 0.00 0.00 81 1011.1
20260506224043 62 317 3.5 7.8 0.00 0.00 0.00 81 1011.1
20260506223544 62 327 3.5 7.0 0.00 0.00 0.00 82 1011.0
20260506223049 62 329 3.5 7.0 0.00 0.00 0.00 82 1011.1
20260506222545 62 294 3.5 8.7 0.00 0.00 0.00 82 1011.1
20260506222043 62 307 2.6 8.7 0.00 0.00 0.00 82 1011.0
20260506221547 62 286 5.2 8.7 0.00 0.00 0.00 83 1011.1
20260506221043 61 290 4.3 10.4 0.00 0.00 0.00 84 1010.9
20260506220544 61 308 6.1 10.4 0.00 0.00 0.00 85 1011.0
20260506220054 61 296 5.2 7.8 0.00 0.00 0.00 86 1011.0
20260506215543 61 277 2.6 6.1 0.00 0.00 0.00 86 1011.0
20260506215043 61 305 2.6 7.8 0.00 0.00 0.00 86 1011.1
20260506214607 61 317 3.5 7.8 0.00 0.00 0.00 86 1011.0
20260506214044 61 305 4.3 8.7 0.00 0.00 0.00 86 1011.0
20260506213544 61 308 5.2 8.7 0.00 0.00 0.00 86 1010.9
20260506213056 61 302 3.5 7.0 0.00 0.00 0.00 86 1011.0
20260506212544 61 324 4.3 8.7 0.00 0.00 0.00 86 1010.9
20260506212043 61 304 6.1 8.7 0.00 0.00 0.00 86 1011.0
20260506211551 61 311 3.5 7.8 0.00 0.00 0.00 86 1011.2
20260506211043 61 336 4.3 7.8 0.00 0.00 0.00 86 1011.1
20260506210543 61 329 3.5 7.0 0.00 0.00 0.00 85 1011.3
20260506210054 61 321 3.5 7.0 0.00 0.00 0.00 85 1011.2
20260506205543 61 312 2.6 6.1 0.00 0.00 0.00 85 1011.4
20260506205043 61 275 1.7 7.0 0.00 0.00 0.00 85 1011.3
20260506204604 61 295 2.6 7.0 0.00 0.00 0.00 86 1011.4
20260506204043 61 303 5.2 7.0 0.00 0.00 0.00 86 1011.3
20260506203544 61 296 2.6 6.1 0.00 0.00 0.00 87 1011.4
20260506203055 61 296 1.7 7.0 0.00 0.00 0.00 87 1011.5
20260506202545 61 296 3.5 9.6 0.00 0.00 0.00 87 1011.3
20260506202046 61 314 3.5 9.6 0.00 0.00 0.00 87 1011.2
20260506201551 62 323 7.0 9.6 0.00 0.00 0.00 87 1011.2
20260506201045 61 321 6.1 8.7 0.00 0.00 0.00 88 1011.1
20260506200546 61 311 2.6 7.0 0.00 0.00 0.00 88 1011.1
20260506200054 61 317 4.3 7.0 0.00 0.00 0.00 88 1011.1
20260506195542 61 313 3.5 7.0 0.00 0.00 0.00 88 1011.1
20260506195046 61 309 4.3 7.8 0.00 0.00 0.00 88 1011.1
20260506194603 61 317 4.3 7.8 0.00 0.00 0.00 88 1011.0
20260506194049 61 344 3.5 7.0 0.00 0.00 0.00 88 1011.1
20260506193545 61 336 1.7 4.3 0.00 0.00 0.00 88 1011.0
20260506193057 61 336 1.7 4.3 0.00 0.00 0.00 88 1011.2
20260506192545 61 336 2.6 7.8 0.00 0.00 0.00 88 1011.0
20260506192044 61 317 3.5 7.8 0.00 0.00 0.00 88 1011.0
20260506191555 61 306 5.2 8.7 0.00 0.00 0.00 88 1010.8
20260506191044 61 317 4.3 8.7 0.00 0.00 0.00 88 1010.8
20260506190544 62 312 6.1 8.7 0.00 0.00 0.00 88 1010.7
20260506190049 61 302 3.5 7.0 0.00 0.00 0.00 88 1010.7
20260506185543 61 327 2.6 7.8 0.00 0.00 0.00 89 1010.8
20260506185045 61 331 4.3 7.8 0.00 0.00 0.00 89 1010.7
20260506184553 61 311 5.2 7.8 0.00 0.00 0.00 89 1010.6
20260506184045 61 317 3.5 7.0 0.00 0.00 0.00 89 1010.6
20260506183546 61 336 1.7 5.2 0.00 0.00 0.00 89 1010.6
20260506183059 61 355 3.5 5.2 0.00 0.00 0.00 89 1010.6
20260506182545 61 351 3.5 5.2 0.00 0.00 0.00 89 1010.6
20260506182045 61 340 1.7 5.2 0.00 0.00 0.00 89 1010.5
20260506181552 61 340 1.7 5.2 0.00 0.00 0.00 89 1010.6
20260506181042 61 349 3.5 7.0 0.00 0.00 0.00 88 1010.5
20260506180545 62 331 3.5 7.0 0.00 0.00 0.00 88 1010.6
20260506180052 62 337 4.3 7.0 0.00 0.00 0.00 87 1010.6
20260506175545 62 331 2.6 5.2 0.00 0.00 0.00 87 1010.4
20260506175047 62 338 1.7 5.2 0.00 0.00 0.00 87 1010.5
20260506174548 62 346 2.6 5.2 0.00 0.00 0.00 86 1010.5
20260506174048 62 5 2.6 7.0 0.00 0.00 0.00 86 1010.5
20260506173548 62 355 2.6 7.0 0.00 0.00 0.00 86 1010.4
20260506173059 62 346 2.6 5.2 0.00 0.00 0.00 86 1010.4
20260506172542 62 340 1.7 5.2 0.00 0.00 0.00 86 1010.6
20260506172045 62 327 2.6 7.0 0.00 0.00 0.00 86 1010.5
20260506171556 62 344 2.6 7.0 0.00 0.00 0.00 86 1010.3
20260506171045 62 26 2.6 7.0 0.00 0.00 0.00 85 1010.4
20260506170544 63 5 0.9 4.3 0.00 0.00 0.00 85 1010.4
20260506170056 63 0 1.7 4.3 0.00 0.00 0.00 84 1010.3
20260506165543 64 25 2.6 5.2 0.00 0.00 0.00 82 1010.3
20260506165043 64 19 0.9 6.1 0.00 0.00 0.00 81 1010.4
20260506164558 64 44 1.7 7.0 0.00 0.00 0.00 81 1010.5
20260506164042 64 99 1.7 7.0 0.00 0.00 0.00 81 1010.6
20260506163542 64 82 0.9 6.1 0.00 0.00 0.00 80 1010.5
20260506163103 65 95 1.7 5.2 0.00 0.00 0.00 79 1010.4
20260506162542 64 50 0.9 6.1 0.00 0.00 0.00 79 1010.5
20260506162047 65 0 0.9 6.1 0.00 0.00 0.00 78 1010.6
20260506161605 65 104 1.7 8.7 0.00 0.00 0.00 77 1010.5
20260506161045 65 86 2.6 9.6 0.00 0.00 0.00 76 1010.4
20260506160545 65 105 2.6 9.6 0.00 0.00 0.00 78 1010.4
20260506160055 65 123 3.5 9.6 0.00 0.00 0.00 77 1010.4
20260506155545 65 0 4.3 9.6 0.00 0.00 0.00 76 1010.6
20260506155043 65 93 2.6 9.6 0.00 0.00 0.00 75 1010.5
20260506154611 66 91 3.5 11.3 0.00 0.00 0.00 72 1010.6
20260506154043 66 104 4.3 11.3 0.00 0.00 0.00 70 1010.6
20260506153542 66 106 6.1 12.2 0.00 0.00 0.00 69 1010.4
20260506153050 66 133 6.1 12.2 0.00 0.00 0.00 69 1010.3
20260506152545 66 127 5.2 13.0 0.00 0.00 0.00 70 1010.3
20260506152043 65 94 5.2 14.8 0.00 0.00 0.00 70 1010.4
20260506151554 65 141 7.0 14.8 0.00 0.00 0.00 71 1010.4
20260506151045 65 115 7.8 13.9 0.00 0.00 0.00 71 1010.4
20260506150547 65 141 7.0 12.2 0.00 0.00 0.00 71 1010.6
20260506150054 65 126 6.1 10.4 0.00 0.00 0.00 74 1010.7
20260506145547 65 96 5.2 10.4 0.00 0.00 0.00 74 1010.4
20260506145043 65 133 4.3 9.6 0.00 0.00 0.00 74 1010.5
20260506144601 65 110 3.5 10.4 0.00 0.00 0.00 74 1010.6
20260506144044 65 126 5.2 11.3 0.00 0.00 0.00 73 1010.6
20260506143543 64 115 5.2 11.3 0.00 0.00 0.00 74 1010.7
20260506143049 64 103 7.0 11.3 0.00 0.00 0.00 73 1010.4
20260506142542 64 89 6.1 12.2 0.00 0.00 0.00 73 1010.3
20260506142042 65 133 6.1 12.2 0.00 0.00 0.00 72 1010.2
20260506141557 65 99 5.2 13.0 0.00 0.00 0.00 73 1010.4
20260506141043 65 100 6.1 13.0 0.00 0.00 0.00 73 1010.4
20260506140543 65 126 5.2 10.4 0.00 0.00 0.00 74 1010.4
20260506140109 65 114 4.3 10.4 0.00 0.00 0.00 73 1010.4
20260506135542 65 109 3.5 10.4 0.00 0.00 0.00 72 1010.6
20260506135046 65 127 4.3 9.6 0.00 0.00 0.00 72 1010.6
20260506134602 66 96 3.5 9.6 0.00 0.00 0.00 70 1010.7
20260506134045 66 109 3.5 9.6 0.00 0.00 0.00 70 1010.8
20260506133545 67 99 2.6 9.6 0.00 0.00 0.00 70 1011.0
20260506133103 67 135 2.6 8.7 0.00 0.00 0.00 69 1010.9
20260506132545 67 81 2.6 7.8 0.00 0.00 0.00 69 1011.1
20260506132044 67 92 2.6 7.0 0.00 0.00 0.00 69 1011.1
20260506131557 67 92 2.6 7.0 0.00 0.00 0.00 70 1011.1
20260506131045 66 132 1.7 7.0 0.00 0.00 0.00 73 1011.1
20260506130546 67 111 1.7 7.0 0.00 0.00 0.00 73 1011.1
20260506130059 66 110 1.7 7.0 0.00 0.00 0.00 76 1011.0
20260506125542 68 106 0.0 6.1 0.00 0.00 0.00 75 1011.2
20260506125045 67 96 0.9 6.1 0.00 0.00 0.00 75 1011.3
20260506124555 66 92 1.7 6.1 0.00 0.00 0.00 77 1011.3
20260506124045 66 103 1.7 6.1 0.00 0.00 0.00 76 1011.2
20260506123546 67 0 0.9 5.2 0.00 0.00 0.00 72 1011.2